Time,TemperatureF,DewpointF,PressureIn,WindDirection,WindDirectionDegrees,WindSpeedMPH,WindSpeedGustMPH,Humidity,HourlyPrecipIn,Conditions,Clouds,dailyrainin,SoftwareType,DateUTC
2013-02-11 06:32:00,57.0,54.4,30.06,South,180,10.2,10.2,91,0.00,,,0.00,WUHU216HW,2013-02-11 11:32:00,
2013-02-11 06:37:00,57.0,54.4,30.06,SSE,158,7.3,12.3,91,0.00,,,0.00,WUHU216HW,2013-02-11 11:37:00,
2013-02-11 06:42:00,57.0,54.6,30.06,South,180,0.0,12.3,91,0.00,,,0.00,WUHU216HW,2013-02-11 11:42:00,
2013-02-11 06:47:00,57.2,54.6,30.06,South,180,7.8,7.8,91,0.00,,,0.00,WUHU216HW,2013-02-11 11:47:00,
2013-02-11 06:52:00,57.3,54.7,30.06,SSW,203,6.4,7.8,91,0.00,,,0.00,WUHU216HW,2013-02-11 11:52:00,
2013-02-11 06:57:00,57.3,54.7,30.06,SSW,203,1.5,6.7,91,0.00,,,0.00,WUHU216HW,2013-02-11 11:57:00,
2013-02-11 07:02:00,57.3,54.7,30.06,South,180,0.0,5.3,91,0.00,,,0.00,WUHU216HW,2013-02-11 12:02:00,
2013-02-11 07:07:00,57.3,54.7,30.06,South,180,3.5,6.4,91,0.00,,,0.00,WUHU216HW,2013-02-11 12:07:00,
2013-02-11 07:12:00,57.3,54.7,30.06,SSW,203,0.0,6.4,91,0.00,,,0.00,WUHU216HW,2013-02-11 12:12:00,
2013-02-11 16:54:00,62.2,59.3,29.96,WSW,248,3.8,3.8,90,0.00,,,0.00,WUHU216HW,2013-02-11 21:54:00,
2013-02-11 16:59:00,62.2,59.3,29.96,SW,225,0.0,3.8,90,0.00,,,0.00,WUHU216HW,2013-02-11 21:59:00,
2013-02-11 17:04:00,62.2,59.3,29.96,South,180,2.2,2.2,90,0.00,,,0.00,WUHU216HW,2013-02-11 22:04:00,
2013-02-11 17:09:00,62.0,59.1,29.95,South,180,0.0,2.2,90,0.00,,,0.00,WUHU216HW,2013-02-11 22:09:00,
2013-02-11 17:14:00,62.0,59.1,29.95,South,180,7.1,7.1,90,0.00,,,0.00,WUHU216HW,2013-02-11 22:14:00,
2013-02-11 17:19:00,61.8,59.0,29.94,SSE,158,1.3,12.0,90,0.00,,,0.00,WUHU216HW,2013-02-11 22:19:00,
2013-02-11 17:24:00,61.8,59.0,29.94,SSW,203,7.3,12.0,90,0.00,,,0.00,WUHU216HW,2013-02-11 22:24:00,
2013-02-11 17:29:00,61.7,58.8,29.95,SSE,158,9.1,13.1,90,0.00,,,0.00,WUHU216HW,2013-02-11 22:29:00,
2013-02-11 17:34:00,61.7,58.8,29.95,SSW,203,3.8,13.1,90,0.00,,,0.00,WUHU216HW,2013-02-11 22:34:00,
2013-02-11 17:39:00,61.8,59.2,29.94,SSW,203,4.9,9.8,91,0.00,,,0.00,WUHU216HW,2013-02-11 22:39:00,
2013-02-11 17:44:00,61.8,59.1,29.93,South,180,10.9,10.9,91,0.00,,,0.00,WUHU216HW,2013-02-11 22:44:00,
2013-02-11 17:49:00,61.8,59.1,29.93,South,180,0.0,10.9,91,0.00,,,0.00,WUHU216HW,2013-02-11 22:49:00,
2013-02-11 17:55:00,61.7,59.1,29.93,SSE,158,5.3,10.0,91,0.00,,,0.00,WUHU216HW,2013-02-11 22:55:00,
2013-02-11 18:00:00,61.7,59.1,29.92,South,180,14.5,14.5,91,0.00,,,0.00,WUHU216HW,2013-02-11 23:00:00,
2013-02-11 18:05:00,61.7,59.1,29.92,ENE,68,0.0,14.5,91,0.00,,,0.00,WUHU216HW,2013-02-11 23:05:00,
2013-02-11 18:10:00,61.7,59.1,29.93,SSE,158,0.0,13.6,91,0.00,,,0.00,WUHU216HW,2013-02-11 23:10:00,
2013-02-11 18:15:00,61.7,59.1,29.93,South,180,0.0,4.9,91,0.00,,,0.00,WUHU216HW,2013-02-11 23:15:00,
2013-02-11 18:20:00,61.7,59.1,29.93,South,180,8.2,8.2,91,0.00,,,0.00,WUHU216HW,2013-02-11 23:20:00,
2013-02-11 18:25:00,61.7,59.1,29.92,SE,135,5.5,8.2,91,0.00,,,0.00,WUHU216HW,2013-02-11 23:25:00,
2013-02-11 18:30:00,61.5,58.9,29.91,SSW,203,6.2,13.4,91,0.00,,,0.00,WUHU216HW,2013-02-11 23:30:00,
2013-02-11 18:35:00,61.5,58.9,29.92,SW,225,0.0,13.4,91,0.00,,,0.00,WUHU216HW,2013-02-11 23:35:00,
2013-02-11 18:40:00,61.5,58.9,29.93,West,270,0.0,6.0,91,0.00,,,0.00,WUHU216HW,2013-02-11 23:40:00,
2013-02-11 18:45:00,61.5,58.9,29.95,North,0,0.0,5.5,91,0.00,,,0.00,WUHU216HW,2013-02-11 23:45:00,
2013-02-11 18:50:00,61.5,58.9,29.96,North,0,0.0,3.8,91,0.00,,,0.00,WUHU216HW,2013-02-11 23:50:00,
2013-02-11 18:55:00,61.3,58.7,29.96,North,0,0.0,2.2,91,0.00,,,0.00,WUHU216HW,2013-02-11 23:55:00,
2013-02-11 19:00:00,61.3,58.7,29.97,NE,45,0.0,1.3,91,0.00,,,0.00,WUHU216HW,2013-02-12 00:00:00,
2013-02-11 19:05:00,61.1,58.5,29.97,ENE,68,0.0,0.0,91,0.00,,,0.00,WUHU216HW,2013-02-12 00:05:00,
2013-02-11 19:10:00,60.9,58.3,29.97,WSW,248,0.0,0.0,91,0.00,,,0.00,WUHU216HW,2013-02-12 00:10:00,
2013-02-11 19:15:00,60.9,58.3,29.97,NW,315,0.6,0.6,91,0.00,,,0.00,WUHU216HW,2013-02-12 00:15:00,
2013-02-11 19:20:00,60.9,58.3,29.96,SSW,203,0.0,0.6,91,0.00,,,0.00,WUHU216HW,2013-02-12 00:20:00,
2013-02-11 19:25:00,60.9,58.3,29.96,SSW,203,0.0,0.0,91,0.00,,,0.00,WUHU216HW,2013-02-12 00:25:00,
2013-02-11 19:30:00,60.8,57.9,29.95,SSW,203,0.0,5.3,90,0.00,,,0.00,WUHU216HW,2013-02-12 00:30:00,
2013-02-11 19:35:00,60.6,57.7,29.96,SSW,203,0.0,5.3,90,0.00,,,0.00,WUHU216HW,2013-02-12 00:35:00,
2013-02-11 19:40:00,60.6,57.7,29.96,SSW,203,0.0,0.0,90,0.00,,,0.00,WUHU216HW,2013-02-12 00:40:00,
2013-02-11 19:45:00,64.0,60.8,29.95,SSW,203,0.0,0.0,89,0.00,,,0.00,WUHU216HW,2013-02-12 00:45:00,